Погода в Родниках

Россия / Пермский край     59°33′24″N   56°44′18″E
темп.,
°C
ветер,
м/с
пор.,
м/с
влажн.,
%
обл.,
%
осадки,
мм/ч
давл.,
гПа
погр.,
м
27 января, чт
чт2723:00−19юв2210091 0.0 101918
02:00−19юв1110094 0.0 101717
05:00−20ююв11100100 0.1 101611
08:00−16ю1497100 0.1 1015123
11:00−13ю2695100 0.3 1015251
14:00−11юз3692100 0.3 1016463
17:00−11юз389498 0.5 1017514
20:00−12юз3894100 0.1 1019407
28 января, пт
пт2823:00−14ююз379688 0.3 1019277
02:00−14ююз379690 0.2 1020261
05:00−15ю379684 0.4 1021242
08:00−16ю269675 0.1 1021205
11:00−16ю379689 0.2 1022270
14:00−14ю3692100 0.1 1022369
17:00−14ю379585 0.2 1022277
20:00−16ю289884 0.1 1023190
29 января, сб
сб2923:00−18ююв2310083 0.1 102344
02:00−16ююв259886 0.1 1023120
05:00−18юв229980 0.1 102233
08:00−15юв139797 0.0 102162
11:00−11вюв1395100 0.1 102098
14:00−7юв2590100 0.0 1018215
17:00−7юв2992100 0.0 1016324
20:00−9ююв31093100 0.0 1016302
30 января, вс
вс3023:00−11ююв289791 0.0 1015179
02:00−13юв249897 0.0 101464
05:00−14юв2598100 0.0 101392
08:00−12ююв3995100 0.0 1012250
11:00−11ююв3893100 0.0 1011312
14:00−9ююв3691100 0.1 1010392
17:00−9юв3795100 0.3 1009335
20:00−9юв389574 0.2 1009307
31 января, пн
пн3123:00−9юв279591 0.3 1008268
02:00−9юв269689 0.3 1008199
05:00−9юв269680 0.5 1008156
08:00−12вюв239879 0.1 100849
11:00−8юв289586 0.2 1008229
14:00−5ююв379494 0.1 1009395
17:00−5ююв389580 0.3 1009406
20:00−5ююв4994100 0.1 1009528